Accueil
METAR-TAF:

METAR-TAF

Aéroports :

Valence, France

Aéroport de Valence-Chabeuil

latitude: 44-54-58N, longitude: 4-58-06E, altitude: 160 m

Observation

Le bulletin a été fait il y a 9 heures et 51 minutes, à 18:00 UTC
Vent 20 kt de sud/sud-ouest
Température 5°C
Humidité 100%
Pression 997 hPa
Visibilité: 5000 m
Ciel couvert à une hauteur de 300 ft
brume

METAR: LFLU 101800Z AUTO 21020KT 5000 BR OVC003 05/05 Q0997

Heure: 04:51 (03:51 UTC)


TAF: absent

Observations et prévisions météorologiques de plus de 4000 aéroports (messages METAR et TAF).

Les stations disponibles sont représentées par des disques jaunes et rouges sur la carte.

Passer la souris dessus pour voir le nom de la station.

Cliquer dessus pour voir les observations et prévisions météorologiques.

Pour changer de carte: cliquez sur les boutons verts avec une croix noire pour zoomer, sur le bouton vert avec un tiret pour effectuer un zoom arrière, ou sur les flèches vertes pour les cartes adjacentes.


METAR-TAF: